Weather History for Ft Lauderdale, FL

Change the Weather History Date:

Sunday, March 10, 2013

  Actual Average Record
Temperature  
Mean Temperature 72 °F 72 °F  
Max Temperature 77 °F 79 °F 91 °F (1948)
Min Temperature 67 °F 65 °F 38 °F (1914)
Degree Days  
Heating Degree Days 0 0  
Month to date heating degree days 29 7  
Since 1 July heating degree days 72 109  
Cooling Degree Days 7 8  
Month to date cooling degree days 9 76  
Year to date cooling degree days 466 432  
Growing Degree Days 22 (Base 50)    
Moisture  
Dew Point 54 °F    
Average Humidity 57    
Maximum Humidity 68    
Minimum Humidity 46    
Precipitation  
Precipitation 0.00 in 0.11 in 2.73 in (1943)
Month to date precipitation 0.02 0.98  
Year to date precipitation 3.14 7.57  
Snow  
Snow 0.00 in - - ()
Month to date snowfall 0.0  
Since 1 July snowfall 0.0  
Snow Depth 0.00 in    
Sea Level Pressure  
Sea Level Pressure 30.11 in    
Wind  
Wind Speed 12 mph (East)    
Max Wind Speed 18 mph    
Max Gust Speed 24 mph    
Visibility 10 miles    
Events      
T = Trace of Precipitation, MM = Missing Value Source: NWS Daily Summary

Daily Weather History Graph

Daily Weather History Graph

Search for Another Location

Airport:

Trip Planner

Search our weather history database for the weather conditions in past years. The results will help you decide how hot, cold, wet, or windy it might be!

Date:

Astronomy

Mar. 10, 2013 Rise Set
Actual Time 7:34 AM EDT 7:27 PM EDT
Civil Twilight 7:11 AM EDT 7:50 PM EDT
Nautical Twilight 6:45 AM EDT 8:16 PM EDT
Astronomical Twilight 6:18 AM EDT 8:43 PM EDT
Moon 6:30 AM EDT (3/10) 6:34 PM EDT (3/10)
Length of Visible Light 12h 38m
Length of Day
11h 52m
Waning Crescent, 2% of the Moon is Illuminated
Mar 10
Waning Crescent
Mar 11
New
Mar 19
First Quarter
Mar 27
Full
Apr 3
Last Quarter

Hourly Weather History & Observations

Time (EDT) Temp. Dew Point Humidity Pressure Visibility Wind Dir Wind Speed Gust Speed Precip Events Conditions
12:53 AM 68.0 °F 51.1 °F 55% 30.15 in 10.0 mi East 13.8 mph - N/A   Mostly Cloudy
1:53 AM 68.0 °F 51.1 °F 55% 30.11 in 10.0 mi East 10.4 mph - N/A   Mostly Cloudy
3:53 AM 68.0 °F 52.0 °F 56% 30.09 in 10.0 mi East 9.2 mph - N/A   Scattered Clouds
4:53 AM 68.0 °F 50.0 °F 52% 30.09 in 10.0 mi ENE 8.1 mph - N/A   Mostly Cloudy
5:53 AM 68.0 °F 52.0 °F 56% 30.11 in 10.0 mi East 8.1 mph - N/A   Overcast
6:53 AM 68.0 °F 52.0 °F 56% 30.10 in 10.0 mi East 12.7 mph - N/A   Mostly Cloudy
7:53 AM 68.0 °F 52.0 °F 56% 30.12 in 10.0 mi East 10.4 mph - N/A   Scattered Clouds
8:53 AM 69.1 °F 52.0 °F 54% 30.13 in 10.0 mi ENE 9.2 mph - N/A   Mostly Cloudy
9:53 AM 71.1 °F 51.1 °F 49% 30.14 in 10.0 mi East 17.3 mph 20.7 mph N/A   Clear
10:53 AM 73.0 °F 53.1 °F 49% 30.14 in 10.0 mi East 11.5 mph 19.6 mph N/A   Mostly Cloudy
11:53 AM 75.0 °F 54.0 °F 48% 30.14 in 10.0 mi East 15.0 mph 19.6 mph N/A   Mostly Cloudy
12:53 PM 75.9 °F 53.1 °F 45% 30.14 in 10.0 mi East 15.0 mph - N/A   Partly Cloudy
1:53 PM 75.9 °F 54.0 °F 46% 30.11 in 10.0 mi ENE 11.5 mph 20.7 mph N/A   Scattered Clouds
2:53 PM 75.9 °F 55.0 °F 48% 30.09 in 10.0 mi East 15.0 mph 21.9 mph N/A   Partly Cloudy
3:53 PM 75.0 °F 55.9 °F 51% 30.08 in 10.0 mi East 15.0 mph - N/A   Scattered Clouds
4:53 PM 75.0 °F 55.0 °F 50% 30.07 in 10.0 mi East 16.1 mph - N/A   Mostly Cloudy
5:53 PM 73.9 °F 54.0 °F 50% 30.08 in 10.0 mi ESE 12.7 mph - N/A   Partly Cloudy
6:53 PM 72.0 °F 54.0 °F 53% 30.08 in 10.0 mi East 11.5 mph - N/A   Mostly Cloudy
7:53 PM 72.0 °F 55.0 °F 55% 30.08 in 10.0 mi East 9.2 mph - N/A   Scattered Clouds
8:53 PM 71.1 °F 55.0 °F 57% 30.09 in 10.0 mi East 11.5 mph - N/A   Scattered Clouds
9:53 PM 71.1 °F 57.0 °F 61% 30.11 in 10.0 mi East 9.2 mph - N/A   Scattered Clouds
10:53 PM 72.0 °F 59.0 °F 64% 30.11 in 10.0 mi East 12.7 mph - N/A   Overcast
11:53 PM 72.0 °F 60.1 °F 66% 30.11 in 10.0 mi East 15.0 mph - N/A   Mostly Cloudy
12:53 AM 71.1 °F 59.0 °F 66% 30.09 in 10.0 mi East 16.1 mph 23.0 mph N/A   Mostly Cloudy